Location: ??????
(36.0418°N, 43.6351°E)
Time: 02:56:18
(UTC+00:00)

ATLAS 5 CENTAUR R/B - Pass Details

Date: 07 March 2021
Orbit: 516 x 1142 km, 63.3° (Epoch: 19 April)

Event Time Altitude Azimuth Distance (km) Brightness Sun altitude
Exits shadow 02:13:56 26° 234° (SW) 1,061 2.3 -15.7°
Maximum altitude 02:15:55 57° 304° (NW) 640 1.3 -15.3°
Drops below altitude 10° 02:20:04 10° 24° (NNE) 1,912 4.4 -14.5°
Sets 02:22:30 0° 28° (NNE) 2,898 5.5 -14.0°
